Location: Chiroubles
(46.1812°N, 4.6660°E)
Time: 03:16:23
(UTC+00:00)

Tiros 1 - Pass Details

Date: 28 November 2020
Orbit: 630 x 663 km, 48.4° (Epoch: 16 January)

Event Time Altitude Azimuth Distance (km) Brightness Sun altitude
Rises 19:50:12 0° 288° (WNW) 2,985 11.5 -39.4°
Reaches altitude 10° 19:52:33 10° 287° (WNW) 2,067 10.4 -39.8°
Enters shadow 19:53:01 13° 286° (WNW) 1,890 10.2 -39.9°
